This is the latest recevied weather packets stored in our database for station/object OE3CJB-13. If no packets are shown the sender has not sent any weather packets the latest 10 day(s).
| Time | Temp. | Humidity | Pressure | Rain* | Wind** | Luminosity | Snow |
|---|---|---|---|---|---|---|---|
| 1788430558 | 25.56° C | 33% | 1184.8 hPa | 0 mm | - | - | - |
| 1788429647 | 25.56° C | 35% | 1183.1 hPa | 0 mm | - | - | - |
| 1788428734 | 24.44° C | 40% | 1182.5 hPa | 0 mm | - | - | - |
| 1788427821 | 24.44° C | 41% | 1182.7 hPa | 0 mm | - | - | - |
| 1788426967 | 23.89° C | 43% | 1182 hPa | 0 mm | - | - | - |
| 1788426067 | 23.33° C | 45% | 1182 hPa | 0 mm | - | - | - |
| 1788425165 | 22.78° C | 49% | 1181.2 hPa | 0 mm | - | - | - |
| 1788424265 | 22.22° C | 51% | 1180.6 hPa | 0 mm | - | - | - |
| 1788423365 | 22.22° C | 53% | 1180.7 hPa | 0 mm | - | - | - |
| 1788422448 | 21.67° C | 57% | 1179.9 hPa | 0 mm | - | - | - |
| 1788421534 | 20.56° C | 59% | 1179.2 hPa | 0 mm | - | - | - |
| 1788420622 | 20.56° C | 60% | 1178.4 hPa | 0 mm | - | - | - |
| 1788419758 | 20° C | 61% | 1176 hPa | 0 mm | - | - | - |
| 1788418848 | 20° C | 62% | 1175.1 hPa | 0 mm | - | - | - |
| 1788417934 | 19.44° C | 63% | 1174.3 hPa | 0 mm | - | - | - |
| 1788417022 | 18.89° C | 63% | 1175.1 hPa | 0 mm | - | - | - |
| 1788416164 | 18.89° C | 63% | 1175 hPa | 0 mm | - | - | - |
| 1788415249 | 18.89° C | 62% | 1175 hPa | 0 mm | - | - | - |
| 1788414334 | 18.33° C | 62% | 1175.8 hPa | 0 mm | - | - | - |
| 1788413422 | 18.33° C | 62% | 1175.6 hPa | 0 mm | - | - | - |
| 1788412558 | 18.33° C | 62% | 1176.4 hPa | 0 mm | - | - | - |
| 1788411648 | 18.33° C | 60% | 1177.1 hPa | 0 mm | - | - | - |
| 1788410734 | 18.33° C | 59% | 1176.2 hPa | 0 mm | - | - | - |
| 1788409822 | 18.33° C | 57% | 1176.9 hPa | 0 mm | - | - | - |
| 1788408959 | 18.33° C | 55% | 1177.7 hPa | 0 mm | - | - | - |
* Rain latest hour (hover to see other rain measurements)
** Current wind speed in m/s (hover to see current wind gust speed)